Regional Weather Roundup
Issued by NWS

Home | Current Version | Previous Version | Text Only | Print | Product List | Glossary Off
Versions: 1 2 3 4 5 6 7 8 9 10 11 12 13 14 15 16 17 18 19 20 21 22 23 24 25 26 27 28 29 30 31 32 33 34 35 36 37 38 39 40 41 42 43 44 45 46 47 48 49 50

000
ASUS43 KBIS 242010
RWRND

NORTH DAKOTA REGIONAL WEATHER ROUNDUP
NATIONAL WEATHER SERVICE BISMARCK ND
200 PM CST FRI NOV 24 2017

NOTE: "FAIR" INDICATES FEW OR NO CLOUDS BELOW 12,000 FEET WITH NO
SIGNIFICANT WEATHER AND/OR OBSTRUCTIONS TO VISIBILITY.


NDZ001>003-009>011-017-242100-
NORTHWEST NORTH DAKOTA

CITY           SKY/WX    TMP DP  RH WIND       PRES   REMARKS
WILLISTON      SUNNY     52  31  44 NW20G29   29.72R
MINOT          SUNNY     51  32  48 W29G36    29.62R
MINOT AFB      SUNNY     50  33  52 NW23G35   29.60R
$$

NDZ018>021-031>035-040>046-242100-
SOUTHWEST NORTH DAKOTA

CITY           SKY/WX    TMP DP  RH WIND       PRES   REMARKS
BISMARCK       SUNNY     55  38  52 W21G30    29.69R
DICKINSON      SUNNY     51  34  52 NW20      29.73R
GARRISON         N/A     49  37  63 W20G36    29.66R
HETTINGER ARPT SUNNY     50  35  56 NW24G32   29.77R
$$

NDZ004>008-012>016-024-026-027-054-242100-
NORTHEAST NORTH DAKOTA

CITY           SKY/WX    TMP DP  RH WIND       PRES   REMARKS
GRAND FORKS    SUNNY     45  37  73 NW15G25   29.50R
GRND FRKS AFB  SUNNY     46  35  67 NW20G25   29.50R
DEVILS LAKE    SUNNY     45  35  68 W20       29.54R
$$

NDZ022-023-025-028>030-036>039-047>053-242100-
SOUTHEAST NORTH DAKOTA

CITY           SKY/WX    TMP DP  RH WIND       PRES   REMARKS
FARGO          SUNNY     51  39  63 NW23G30   29.50R
JAMESTOWN      SUNNY     50  38  63 NW26G37   29.57R
$$





USA.gov is the U.S. government's official web portal to all federal, state and local government web resources and services.